Theta_e
322 322 323 324 324 325 326 326 326 326 327 327 327 327 327 327 325 315 309 317 320 327 323 315 313 312 313 312 312 310 298 296 299 298 299 301 298 301 299 298 300 303 300 300 305
320 320 321 322 322 323 324 325 325 325 326 326 326 326 327 326 317 313 324 328 328 327 315 311 309 310 307 309 308 303 300 300 301 300 298 301 300 300 297 298 298 300 301 302 302
318 318 319 319 320 322 323 323 324 324 325 325 325 326 326 323 312 312 329 328 326 323 315 312 311 310 306 308 306 304 299 302 302 302 302 300 300 302 298 297 300 300 301 300 299
317 317 317 318 318 320 321 322 323 324 324 325 325 325 324 320 301 314 325 324 324 318 312 311 309 305 303 304 307 299 304 304 305 303 301 299 301 300 300 300 302 301 301 300 299
318 316 316 317 317 318 319 320 321 322 323 323 324 325 320 309 308 314 322 321 314 312 309 308 306 306 303 304 304 300 302 304 303 302 301 302 299 299 299 302 304 304 302 300 300
318 317 316 316 316 317 318 319 320 321 322 322 324 323 313 301 313 314 310 311 311 309 307 307 306 306 303 302 300 301 301 301 302 302 302 299 298 299 300 303 303 303 300 300 300
318 317 316 316 316 316 317 318 319 321 321 322 323 321 310 305 313 311 310 309 309 309 307 309 308 305 306 302 303 301 296 299 300 301 299 299 295 296 301 300 300 301 301 300 300
317 316 315 316 316 316 317 318 319 320 321 322 324 318 305 314 311 309 310 308 309 309 309 308 307 306 303 303 300 295 295 291 298 300 298 297 291 299 302 300 299 298 298 300 300
316 315 314 315 316 316 317 317 318 321 322 322 317 313 304 314 309 310 309 307 307 308 307 307 307 303 301 295 293 295 289 292 296 300 297 295 292 298 299 299 297 297 298 299 300
315 315 315 315 316 316 317 318 320 318 318 320 313 306 306 305 309 309 307 308 306 305 304 303 301 296 295 293 287 289 290 293 292 296 296 293 293 297 299 298 297 298 299 299 300
316 315 316 316 316 318 315 312 307 309 309 304 305 304 305 308 311 306 306 305 305 302 296 300 294 291 294 297 297 295 293 292 296 298 294 293 294 296 298 298 297 299 300 300 299
316 316 316 316 317 317 314 305 306 305 296 303 304 305 307 309 303 305 305 299 299 294 297 295 291 297 298 297 295 293 291 291 295 297 293 292 293 296 297 298 299 299 300 300 297
317 316 316 316 317 314 309 306 310 311 298 298 302 302 302 305 300 302 302 300 297 295 295 293 295 299 297 294 293 292 290 291 291 294 291 288 288 291 295 298 299 299 300 298 297
318 317 316 316 312 311 307 309 311 310 291 294 298 302 303 303 296 303 303 301 297 294 295 294 298 297 295 293 294 289 294 294 292 288 284 289 283 289 292 293 295 296 298 295 296
317 316 316 315 309 307 308 309 310 306 280 297 296 304 303 298 297 296 299 298 294 294 293 292 292 292 292 293 295 291 292 290 290 288 286 286 283 287 292 291 293 295 298 297 297
317 316 315 312 312 312 311 309 306 289 280 293 297 295 295 296 296 296 296 298 296 293 293 293 295 293 293 292 292 292 290 289 286 285 280 286 285 284 288 291 292 294 296 295 296
317 316 313 315 309 312 310 305 289 282 294 293 293 295 294 294 294 292 291 289 288 284 286 290 291 292 293 290 290 289 287 280 278 277 280 287 284 289 291 292 293 294 295 295 296
317 316 313 314 313 310 305 295 282 293 291 295 294 294 291 294 293 292 291 288 291 289 287 285 285 291 292 292 290 287 288 281 275 277 282 282 281 286 294 296 295 295 294 295 294
317 315 312 313 310 309 299 285 290 296 299 296 295 291 291 292 292 292 289 290 292 292 287 286 286 290 291 291 292 288 284 289 282 277 277 285 287 291 292 293 293 292 292 292 293
313 311 309 314 311 306 293 291 296 302 302 298 291 292 289 291 289 290 290 293 292 295 296 290 286 290 287 288 288 287 289 282 283 273 272 282 284 286 288 290 290 290 290 291 292
311 305 311 313 310 299 286 288 296 303 303 297 295 291 290 290 291 291 291 294 294 294 296 293 289 287 286 284 285 283 283 285 286 283 278 278 283 287 289 290 290 290 292 293 293
309 298 308 309 295 294 289 294 298 298 301 297 293 291 291 291 289 289 289 292 295 295 290 293 289 284 286 290 288 289 288 288 283 281 280 283 284 294 290 291 292 292 293 293 294
302 302 306 306 292 291 292 294 296 296 296 296 295 295 295 291 286 290 292 296 297 293 289 291 285 281 283 288 287 284 287 289 289 286 283 280 283 292 295 293 291 292 293 293 294
299 293 296 298 299 295 293 291 291 297 296 297 295 295 292 290 293 290 291 294 295 295 296 294 287 284 281 284 289 285 287 287 287 282 283 283 285 290 293 293 295 296 297 294 294
297 293 297 289 290 294 295 293 291 290 297 298 294 294 290 287 290 288 290 291 294 296 294 290 283 285 287 288 288 287 286 287 286 286 282 285 285 289 292 293 294 296 296 296 294
290 291 291 291 291 290 292 290 290 293 294 293 292 295 294 290 292 290 290 291 290 291 291 291 283 285 283 286 286 284 286 287 287 287 287 288 287 293 294 295 295 296 296 296 296
296 295 289 287 288 287 288 289 290 291 293 296 295 294 292 294 297 297 298 297 296 293 289 286 285 283 280 285 284 280 285 286 287 289 289 285 289 294 293 294 295 296 297 297 295
Wind_Speed
16 17 17 18 18 18 18 18 17 15 14 13 13 11 9 8 7 4 7 2 6 7 0 5 5 6 5 4 3 2 2 6 7 1 0 5 4 5 2 2 3 7 2 4 14
15 16 17 17 17 18 18 18 18 17 15 14 14 12 9 9 5 11 5 11 10 6 3 6 6 6 4 4 3 3 3 5 3 5 4 2 7 5 3 6 6 5 7 7 11
15 16 16 17 18 17 17 18 17 16 16 14 13 12 9 6 5 1 4 9 8 5 5 5 5 5 7 4 6 6 5 1 4 2 4 5 5 6 6 8 9 13 12 14 11
15 16 17 17 17 18 18 18 17 16 17 15 14 13 9 4 5 3 5 6 5 5 4 3 4 4 5 7 8 4 10 10 2 3 1 4 3 6 10 12 1 4 3 16 18
12 14 17 18 18 19 19 19 18 17 16 16 14 11 5 5 6 5 6 5 5 4 4 6 7 7 7 4 2 8 9 8 6 5 5 7 10 8 13 11 13 9 4 13 14
11 12 15 18 19 20 21 20 20 17 16 17 13 8 4 8 4 9 6 4 5 5 5 5 5 5 5 6 6 5 7 11 7 9 7 6 7 5 10 15 14 10 12 11 14
9 11 14 17 20 22 23 23 22 19 17 15 8 3 6 12 5 7 7 2 1 3 6 2 4 3 5 7 7 4 8 9 12 10 6 5 11 15 20 4 9 10 10 12 14
8 11 13 15 18 21 24 24 23 21 17 8 4 4 8 3 5 5 7 4 2 1 2 3 2 3 3 4 5 4 5 5 4 11 7 10 13 10 16 12 13 11 10 10 13
6 9 15 16 17 19 22 27 24 17 7 3 4 4 7 0 3 5 6 5 6 4 2 2 2 3 5 3 6 9 7 9 10 10 8 10 9 7 4 6 8 11 12 12 13
7 8 10 15 17 19 23 26 10 3 4 5 5 2 6 3 4 3 1 5 3 6 4 4 4 4 4 6 8 7 7 11 14 7 7 8 17 13 11 7 12 13 13 14 14
8 9 10 12 16 18 13 7 3 3 5 8 6 5 6 4 0 5 4 4 3 4 7 7 5 13 15 17 15 13 16 17 22 9 10 16 19 15 12 13 12 15 17 15 13
9 9 11 12 15 17 10 4 5 3 10 10 14 10 2 7 5 8 8 8 7 9 7 4 13 19 9 12 9 9 13 22 20 11 8 10 14 11 9 17 20 17 19 19 8
10 9 11 12 13 10 5 4 3 5 6 7 12 8 6 9 10 12 15 7 8 8 13 19 9 15 6 8 10 13 12 16 17 11 6 4 8 12 9 19 16 18 22 11 11
11 9 8 13 5 6 2 6 4 3 5 8 8 3 4 3 6 5 10 6 9 15 13 17 18 20 18 19 12 22 11 13 13 6 8 5 14 9 6 10 11 16 19 9 11
11 9 4 1 6 5 3 4 5 3 8 3 3 3 5 3 2 3 4 1 15 7 5 9 5 6 10 15 9 8 2 3 3 5 6 4 11 7 10 10 12 12 16 10 10
12 9 7 4 4 2 0 4 3 4 10 5 6 5 4 6 2 3 1 3 3 4 10 16 5 3 4 3 2 4 1 3 2 2 12 12 12 3 8 9 6 9 14 11 8
14 12 9 3 2 4 2 2 4 10 3 7 7 7 5 6 6 7 7 7 7 3 8 6 19 2 4 4 2 4 3 4 5 1 17 11 12 17 5 8 11 12 14 9 10
13 13 11 9 5 4 3 1 14 9 16 3 4 8 7 9 8 9 5 6 14 6 4 4 10 16 9 14 10 10 10 8 8 9 22 5 12 7 12 12 11 15 10 9 10
11 3 3 7 7 4 4 5 15 3 9 13 15 15 10 8 6 8 10 10 8 20 12 8 12 4 6 3 10 6 8 4 2 3 4 12 13 9 8 12 11 9 8 8 9
2 3 4 12 11 5 3 15 19 7 7 10 16 7 14 14 10 10 9 7 7 15 16 6 12 9 4 3 2 4 0 3 2 3 9 20 16 17 7 13 9 6 8 7 9
2 4 1 14 9 4 7 14 16 10 13 9 18 15 18 17 15 17 17 16 5 7 19 8 6 13 7 10 10 2 4 5 2 7 10 13 14 3 5 3 7 7 5 7 10
3 6 6 11 4 5 11 11 9 20 10 5 1 9 19 21 17 20 26 19 14 11 5 6 3 9 15 7 3 5 13 15 13 19 5 13 28 8 2 7 12 8 8 7 8
4 3 5 3 9 9 5 17 17 20 14 5 13 12 10 10 10 14 19 22 15 6 4 9 4 7 11 15 3 6 6 10 13 11 18 17 24 5 21 14 8 7 9 10 12
4 4 2 3 4 11 14 12 17 15 22 21 12 9 7 11 15 12 16 14 10 7 17 6 6 11 15 18 16 12 14 9 12 11 20 22 27 34 28 23 24 22 21 11 12
3 5 5 4 7 17 16 9 21 17 20 13 9 26 16 12 19 14 19 24 17 10 4 12 12 18 26 27 28 28 23 27 27 23 21 27 27 28 30 20 28 23 20 19 12
4 3 5 4 5 8 13 19 27 24 23 22 27 25 22 25 26 23 18 19 20 4 14 13 10 15 23 28 29 31 30 31 33 33 34 33 33 34 29 29 32 28 28 21 16
1 2 0 6 8 9 14 12 6 11 14 22 24 26 26 27 26 29 28 23 17 13 12 10 10 10 22 24 26 23 35 35 35 33 35 30 41 44 33 34 34 34 24 24 13
Wind_Direction
16 15 12 9 6 3 2 359 358 356 355 354 352 342 330 324 309 201 245 162 150 144 213 146 207 208 236 229 218 229 272 266 276 44 348 111 218 158 117 233 209 180 3 91 135
13 9 6 3 1 358 355 353 350 350 348 347 345 340 333 332 261 259 161 124 126 149 226 205 202 176 233 210 199 223 235 264 39 342 288 174 201 211 187 221 234 198 113 120 140
8 5 1 357 352 351 349 345 343 342 341 340 338 333 327 321 274 242 54 116 134 171 277 311 303 205 233 223 200 222 230 326 298 296 344 274 272 213 228 252 223 210 196 166 165
1 0 358 352 348 344 341 339 336 335 333 331 332 327 322 236 271 81 114 115 148 229 247 217 240 213 224 216 216 272 243 253 286 121 240 238 261 265 220 229 179 39 6 163 177
354 353 351 348 345 340 336 332 328 326 325 322 325 323 285 226 252 139 135 134 167 175 227 233 246 240 259 280 158 229 260 284 251 176 234 283 260 248 255 246 237 231 161 173 191
348 349 347 342 339 335 331 327 321 317 316 313 315 318 245 243 115 144 143 157 231 213 202 222 267 355 297 262 254 9 311 292 275 223 216 224 262 223 239 233 244 237 196 200 198
343 343 342 337 336 333 328 322 315 309 306 305 294 246 261 248 140 141 171 134 121 276 244 175 316 240 345 264 356 290 303 272 245 220 231 163 277 229 244 215 232 236 229 203 212
345 338 335 330 330 329 324 315 309 305 300 285 223 219 254 2 101 165 151 135 175 140 336 60 239 255 227 352 257 229 233 282 273 188 159 137 264 226 244 209 221 226 239 232 219
323 328 328 327 322 320 319 310 301 293 258 190 181 237 256 162 205 170 191 176 137 131 75 169 247 242 124 212 282 226 248 236 271 176 133 179 253 277 78 152 236 224 229 236 226
301 309 319 323 311 315 319 301 278 304 247 212 268 252 169 195 127 173 52 151 172 145 163 200 212 221 197 192 229 253 252 284 277 201 196 205 250 265 272 230 248 256 251 241 241
289 297 302 301 307 315 334 339 266 219 226 211 186 243 145 84 94 197 194 161 199 219 198 195 181 216 215 216 235 258 264 262 269 266 182 229 246 247 250 272 256 259 261 252 249
267 283 296 312 312 310 295 334 74 309 299 249 255 245 160 170 206 195 168 179 181 214 211 208 220 234 260 263 270 270 278 272 277 301 175 256 258 259 253 259 258 260 267 266 237
254 270 300 312 312 302 326 41 332 326 253 245 223 210 211 166 224 202 169 193 192 210 215 230 206 216 219 243 263 240 240 260 266 279 226 286 262 249 240 250 260 261 255 249 219
248 258 291 310 290 336 60 337 323 299 263 226 197 213 135 189 269 21 199 192 226 219 214 253 237 242 250 252 232 269 245 259 271 272 245 123 286 219 227 257 230 249 265 241 221
240 243 269 331 306 311 6 328 310 254 283 359 109 336 20 200 67 33 350 8 243 210 175 221 178 194 233 239 205 264 116 282 291 268 313 223 275 234 187 239 235 242 255 253 236
230 222 160 205 221 254 357 304 250 242 242 220 133 176 172 189 148 136 204 312 9 289 256 257 122 201 224 70 100 131 289 239 240 221 256 206 216 183 191 210 226 228 250 249 168
226 198 178 223 279 129 158 227 266 228 199 187 204 176 216 177 195 188 174 185 187 176 225 228 238 147 137 156 174 192 142 295 305 232 260 179 231 245 195 183 192 215 239 202 160
246 218 205 208 157 147 70 317 237 200 212 75 164 168 213 178 221 188 219 233 220 227 302 253 273 172 180 212 172 181 177 173 228 251 278 149 252 241 214 227 211 208 233 154 163
264 246 190 201 164 117 113 173 238 273 251 275 286 261 221 217 229 169 214 237 211 188 203 203 251 35 152 177 161 181 200 200 257 73 319 264 281 294 248 228 220 196 159 173 180
136 222 198 183 142 121 155 232 247 235 287 310 269 273 264 231 196 189 207 192 227 192 218 249 260 187 149 52 263 190 244 111 235 246 243 278 279 270 233 223 216 182 210 210 199
166 254 89 147 122 222 204 227 254 247 240 260 263 280 282 274 278 250 242 241 255 251 198 231 222 261 124 192 183 160 240 226 245 183 235 267 275 206 86 45 164 215 217 216 197
216 238 130 145 185 200 218 211 224 265 265 289 34 258 260 283 296 290 290 293 29 354 172 213 206 242 230 231 187 241 220 204 221 237 242 235 259 261 112 168 152 171 199 223 215
247 241 185 202 227 219 275 243 241 260 246 226 227 212 231 253 258 252 265 271 310 82 62 347 316 289 288 279 231 221 235 251 259 266 253 249 259 214 255 250 224 252 241 229 228
288 249 208 241 223 230 237 242 243 240 254 248 255 219 241 238 234 252 248 261 259 191 145 126 227 247 241 247 293 280 281 269 252 251 259 254 268 279 271 279 287 283 276 247 233
237 248 173 214 250 250 241 216 242 243 231 239 223 225 203 243 254 241 246 260 261 236 183 163 223 224 238 247 257 257 261 265 274 270 266 275 267 270 276 273 269 269 275 275 278
280 314 11 321 304 280 251 253 252 251 246 240 231 237 229 233 230 245 219 230 237 251 209 178 222 216 228 235 245 252 257 250 246 249 250 253 265 256 256 265 270 274 268 279 267
288 114 94 263 266 277 258 274 283 312 279 274 280 277 256 245 237 240 246 258 258 219 211 189 198 217 245 229 238 238 233 244 249 242 240 245 241 253 253 251 258 267 280 275 266